When you browse on this site, cookies collect data to enhance your experience and personalize the content and advertising you see.
Visit our Privacy Policy to learn more. By continuing to use the site, you agree to this use of cookies and data.
  • In Hungary
  • List of Countries
  • For 7 days
  • Water Temperature
  • Satellite Maps
  • Weather Map
  • News
  • Weather Widgets
  • user-avatar
    Login

    Hourly Weather Assemini

    Today, 16 December, Sunday

    Time Temperature Precipitation Wind Pressure Humidity
    00:00 +9°C° 0 mm 3 mps 765 mmHg 79%
    01:00 +9°C° 0 mm 3 mps 764 mmHg 80%
    02:00 +9°C° 0 mm 3 mps 764 mmHg 79%
    03:00 +9°C° 0 mm 3 mps 764 mmHg 78%
    04:00 +10°C° 0 mm 2 mps 764 mmHg 78%
    05:00 +10°C° 0 mm 2 mps 764 mmHg 80%
    06:00 +10°C° 0 mm 2 mps 764 mmHg 82%
    07:00 +10°C° 0 mm 2 mps 764 mmHg 86%
    08:00 +12°C° 0 mm 2 mps 764 mmHg 84%
    09:00 +14°C° 0 mm 2 mps 764 mmHg 81%
    10:00 +15°C° 0 mm 2 mps 764 mmHg 79%
    11:00 +16°C° 0 mm 3 mps 764 mmHg 78%
    12:00 +17°C° 0 mm 3 mps 764 mmHg 77%
    13:00 +18°C° 0 mm 4 mps 763 mmHg 76%
    14:00 +17°C° 0 mm 4 mps 763 mmHg 80%
    15:00 +16°C° 0 mm 5 mps 763 mmHg 84%
    16:00 +15°C° 0 mm 5 mps 762 mmHg 88%
    17:00 +15°C° 0.1 mm 5 mps 762 mmHg 89%
    18:00 +15°C° 0.1 mm 6 mps 762 mmHg 89%
    19:00 +15°C° 0.1 mm 6 mps 762 mmHg 90%
    20:00 +15°C° 0 mm 6 mps 762 mmHg 89%
    21:00 +15°C° 0 mm 7 mps 762 mmHg 88%
    22:00 +15°C° 0 mm 8 mps 762 mmHg 87%
    23:00 +15°C° 0 mm 7 mps 762 mmHg 88%

    Tomorrow, 17 December, Monday

    Time Temperature Precipitation Wind Pressure Humidity
    00:00 +15°C° 0 mm 7 mps 762 mmHg 89%
    01:00 +14°C° 0 mm 7 mps 762 mmHg 89%
    02:00 +14°C° 0.1 mm 7 mps 762 mmHg 88%
    03:00 +14°C° 0.1 mm 7 mps 761 mmHg 87%
    04:00 +14°C° 0.1 mm 7 mps 761 mmHg 86%
    05:00 +12°C° 0 mm 8 mps 762 mmHg 83%
    06:00 +12°C° 0 mm 8 mps 762 mmHg 80%
    07:00 +12°C° 0 mm 9 mps 762 mmHg 78%
    08:00 +12°C° 0 mm 9 mps 763 mmHg 75%
    09:00 +12°C° 0 mm 10 mps 763 mmHg 72%
    10:00 +12°C° 0 mm 11 mps 764 mmHg 70%
    11:00 +12°C° 0 mm 11 mps 764 mmHg 67%
    12:00 +13°C° 0 mm 11 mps 764 mmHg 64%
    13:00 +13°C° 0 mm 12 mps 764 mmHg 61%
    14:00 +13°C° 0 mm 12 mps 764 mmHg 61%
    15:00 +12°C° 0 mm 12 mps 764 mmHg 61%
    16:00 +12°C° 0 mm 12 mps 765 mmHg 61%
    17:00 +12°C° 0 mm 11 mps 765 mmHg 63%
    18:00 +11°C° 0 mm 10 mps 765 mmHg 66%
    19:00 +11°C° 0 mm 10 mps 766 mmHg 68%
    20:00 +10°C° 0 mm 9 mps 766 mmHg 70%
    21:00 +10°C° 0 mm 8 mps 767 mmHg 73%
    22:00 +10°C° 0 mm 7 mps 767 mmHg 75%
    23:00 +10°C° 0 mm 6 mps 768 mmHg 77%

    Day after tomorrow, 18 December, Tuesday

    Time Temperature Precipitation Wind Pressure Humidity
    00:00 +9°C° 0 mm 6 mps 768 mmHg 80%
    01:00 +9°C° 0 mm 5 mps 768 mmHg 82%
    02:00 +9°C° 0 mm 5 mps 768 mmHg 83%
    03:00 +8°C° 0 mm 4 mps 768 mmHg 84%
    04:00 +8°C° 0 mm 4 mps 769 mmHg 85%
    05:00 +9°C° 0 mm 3 mps 769 mmHg 84%
    06:00 +8°C° 0 mm 3 mps 769 mmHg 83%
    07:00 +8°C° 0 mm 2 mps 769 mmHg 82%
    08:00 +9°C° 0 mm 2 mps 769 mmHg 74%
    09:00 +10°C° 0 mm 2 mps 770 mmHg 67%
    10:00 +13°C° 0 mm 1 mps 770 mmHg 59%
    11:00 +14°C° 0 mm 1 mps 770 mmHg 54%
    12:00 +15°C° 0 mm 1 mps 770 mmHg 48%
    13:00 +16°C° 0 mm 1 mps 770 mmHg 42%
    14:00 +16°C° 0 mm 1 mps 769 mmHg 46%
    15:00 +15°C° 0 mm 1 mps 769 mmHg 49%
    16:00 +15°C° 0 mm 1 mps 769 mmHg 52%
    17:00 +14°C° 0 mm 1 mps 769 mmHg 56%
    18:00 +12°C° 0 mm 1 mps 769 mmHg 59%
    19:00 +11°C° 0 mm 1 mps 769 mmHg 62%
    20:00 +9°C° 0 mm 2 mps 769 mmHg 66%
    21:00 +9°C° 0 mm 2 mps 769 mmHg 69%
    22:00 +9°C° 0 mm 2 mps 769 mmHg 73%
    23:00 +9°C° 0 mm 2 mps 769 mmHg 74%

    19 December, Wednesday

    Time Temperature Precipitation Wind Pressure Humidity
    00:00 +9°C° 0 mm 2 mps 769 mmHg 76%
    01:00 +9°C° 0 mm 2 mps 768 mmHg 77%
    02:00 +8°C° 0 mm 2 mps 768 mmHg 77%
    03:00 +8°C° 0 mm 2 mps 768 mmHg 76%
    04:00 +8°C° 0 mm 2 mps 767 mmHg 75%
    05:00 +8°C° 0 mm 2 mps 767 mmHg 75%
    06:00 +8°C° 0 mm 2 mps 767 mmHg 74%
    07:00 +8°C° 0 mm 3 mps 767 mmHg 73%
    08:00 +9°C° 0 mm 3 mps 767 mmHg 68%
    09:00 +11°C° 0 mm 3 mps 767 mmHg 64%
    10:00 +12°C° 0 mm 3 mps 767 mmHg 60%
    11:00 +13°C° 0 mm 3 mps 767 mmHg 57%
    12:00 +16°C° 0 mm 3 mps 767 mmHg 55%
    13:00 +17°C° 0 mm 3 mps 766 mmHg 52%
    14:00 +16°C° 0 mm 3 mps 766 mmHg 57%
    15:00 +16°C° 0 mm 2 mps 766 mmHg 61%
    16:00 +15°C° 0 mm 2 mps 765 mmHg 66%
    17:00 +14°C° 0 mm 2 mps 765 mmHg 70%
    18:00 +13°C° 0 mm 2 mps 765 mmHg 73%
    19:00 +13°C° 0 mm 2 mps 765 mmHg 77%
    20:00 +12°C° 0 mm 2 mps 765 mmHg 79%
    21:00 +12°C° 0 mm 2 mps 765 mmHg 80%
    22:00 +12°C° 0 mm 2 mps 765 mmHg 82%
    23:00 +12°C° 0 mm 2 mps 765 mmHg 84%

    20 December, Thursday

    Time Temperature Precipitation Wind Pressure Humidity
    00:00 +12°C° 0 mm 2 mps 765 mmHg 86%
    01:00 +11°C° 0 mm 3 mps 765 mmHg 88%
    02:00 +11°C° 0 mm 3 mps 765 mmHg 90%
    03:00 +12°C° 0 mm 3 mps 765 mmHg 92%
    04:00 +12°C° 0 mm 3 mps 765 mmHg 94%
    05:00 +12°C° 0 mm 3 mps 765 mmHg 93%
    06:00 +11°C° 0 mm 3 mps 766 mmHg 93%
    07:00 +11°C° 0 mm 3 mps 766 mmHg 92%
    08:00 +12°C° 0 mm 3 mps 766 mmHg 86%
    09:00 +13°C° 0 mm 4 mps 767 mmHg 79%
    10:00 +13°C° 0 mm 4 mps 768 mmHg 72%
    11:00 +14°C° 0 mm 4 mps 767 mmHg 68%
    12:00 +15°C° 0 mm 5 mps 767 mmHg 63%
    13:00 +15°C° 0 mm 5 mps 767 mmHg 58%
    14:00 +15°C° 0 mm 5 mps 767 mmHg 60%
    15:00 +14°C° 0 mm 5 mps 767 mmHg 62%
    16:00 +14°C° 0 mm 5 mps 767 mmHg 64%
    17:00 +13°C° 0 mm 5 mps 768 mmHg 70%
    18:00 +12°C° 0 mm 5 mps 768 mmHg 76%
    19:00 +11°C° 0 mm 4 mps 769 mmHg 82%
    20:00 +11°C° 0 mm 4 mps 769 mmHg 83%
    21:00 +10°C° 0 mm 4 mps 769 mmHg 85%
    22:00 +10°C° 0 mm 4 mps 770 mmHg 86%
    23:00 +10°C° 0 mm 4 mps 770 mmHg 87%

    21 December, Friday

    Time Temperature Precipitation Wind Pressure Humidity
    00:00 +10°C° 0 mm 4 mps 770 mmHg 87%
    01:00 +10°C° 0 mm 3 mps 770 mmHg 87%
    02:00 +10°C° 0 mm 3 mps 770 mmHg 87%
    03:00 +10°C° 0 mm 3 mps 770 mmHg 87%
    04:00 +9°C° 0 mm 3 mps 770 mmHg 87%
    05:00 +9°C° 0 mm 3 mps 770 mmHg 87%
    06:00 +9°C° 0 mm 3 mps 770 mmHg 87%
    07:00 +9°C° 0 mm 3 mps 771 mmHg 87%
    08:00 +11°C° 0 mm 3 mps 771 mmHg 82%
    09:00 +12°C° 0 mm 3 mps 771 mmHg 78%
    10:00 +13°C° 0 mm 3 mps 772 mmHg 73%
    11:00 +14°C° 0 mm 3 mps 771 mmHg 70%
    12:00 +15°C° 0 mm 4 mps 771 mmHg 66%
    13:00 +17°C° 0 mm 4 mps 771 mmHg 63%
    14:00 +15°C° 0 mm 4 mps 771 mmHg 65%
    15:00 +15°C° 0 mm 4 mps 771 mmHg 68%
    16:00 +14°C° 0 mm 4 mps 771 mmHg 70%
    17:00 +13°C° 0 mm 4 mps 771 mmHg 76%
    18:00 +12°C° 0 mm 3 mps 771 mmHg 82%
    19:00 +11°C° 0 mm 3 mps 772 mmHg 88%
    20:00 +11°C° 0 mm 3 mps 772 mmHg 89%
    21:00 +11°C° 0 mm 3 mps 772 mmHg 89%
    22:00 +11°C° 0 mm 3 mps 772 mmHg 90%
    23:00 +11°C° 0 mm 3 mps 772 mmHg 90%
    Show more